Change the Weather History Date:

Monday, October 22, 2012

  Actual Average Record
Temperature  
Mean Temperature 35 °F 42 °F  
Max Temperature 46 °F 59 °F 80 °F (2003)
Min Temperature 24 °F 26 °F 7 °F (1980)
Degree Days  
Heating Degree Days 30 23  
Month to date heating degree days 419 413  
Since 1 July heating degree days 607 832  
Cooling Degree Days 0 0  
Month to date cooling degree days 0 0  
Year to date cooling degree days 309 215  
Moisture  
Dew Point 28 °F    
Average Humidity 72    
Maximum Humidity 96    
Minimum Humidity 48    
Precipitation  
Precipitation 0.05 in 0.03 in 0.65 in (1985)
Month to date precipitation 0.46 0.50  
Year to date precipitation 6.89 7.92  
Sea Level Pressure  
Sea Level Pressure 29.65 in    
Wind  
Wind Speed 6 mph (SW)    
Max Wind Speed 30 mph    
Max Gust Speed 45 mph    
Visibility 8 miles    
Events Rain , Snow    
T = Trace of Precipitation, MM = Missing Value Source: NWS Daily Summary

Daily Weather History Graph

Daily Weather History Graph

Search for Another Location

Airport or City:

Trip Planner

Search our weather history database for the weather conditions in past years. The results will help you decide how hot, cold, wet, or windy it might be!

Date:

Astronomy

Oct. 22, 2012 Rise Set
Actual Time 7:19 AM PDT 6:00 PM PDT
Civil Twilight 6:50 AM PDT 6:29 PM PDT
Nautical Twilight 6:16 AM PDT 7:02 PM PDT
Astronomical Twilight 5:43 AM PDT 7:36 PM PDT
Moon 2:22 PM PDT (10/22) No Moon Set
Length of Visible Light 11h 39m
Length of Day
10h 40m
First Quarter, 57% of the Moon is Illuminated
Oct 22
First Quarter
Oct 29
Full
Nov 6
Last Quarter
Nov 13
New
Nov 20
First Quarter

Hourly Weather History & Observations

Time (PDT) Temp. Windchill Dew Point Humidity Pressure Visibility Wind Dir Wind Speed Gust Speed Precip Events Conditions
12:53 AM 26.1 °F 19.4 °F 19.0 °F 75% 29.76 in 6.0 mi WSW 5.8 mph - N/A   Haze
1:53 AM 26.1 °F 20.5 °F 19.0 °F 75% 29.73 in 9.0 mi West 4.6 mph - N/A   Clear
2:53 AM 25.0 °F 20.7 °F 19.0 °F 78% 29.70 in 6.0 mi WSW 3.5 mph - N/A   Haze
3:53 AM 26.1 °F - 19.9 °F 78% 29.65 in 7.0 mi Calm Calm - N/A   Scattered Clouds
4:53 AM 30.0 °F 26.5 °F 23.0 °F 75% 29.65 in 7.0 mi West 3.5 mph - N/A   Overcast
5:53 AM 34.0 °F 29.8 °F 23.0 °F 64% 29.64 in 9.0 mi West 4.6 mph - N/A   Overcast
6:53 AM 37.0 °F 30.4 °F 28.0 °F 70% 29.65 in 10.0 mi SSE 9.2 mph - N/A   Overcast
7:53 AM 34.0 °F - 32.0 °F 92% 29.65 in 10.0 mi Calm Calm - 0.00 in   Overcast
8:26 AM 35.6 °F 32.8 °F 32.0 °F 87% 29.60 in 9.0 mi ENE 3.5 mph - 0.00 in   Overcast
8:53 AM 35.1 °F 32.2 °F 33.1 °F 92% 29.65 in 10.0 mi NE 3.5 mph - 0.00 in   Overcast
9:05 AM 35.6 °F 32.8 °F 33.8 °F 93% 29.59 in 8.0 mi ENE 3.5 mph - 0.00 in   Overcast
9:53 AM 37.0 °F 32.4 °F 35.1 °F 93% 29.63 in 7.0 mi East 5.8 mph - 0.01 in Rain Light Rain
10:28 AM 37.4 °F - 35.6 °F 93% 29.58 in 8.0 mi North - - 0.00 in   Overcast
10:53 AM 39.0 °F 31.4 °F 36.0 °F 89% 29.62 in 10.0 mi SE 12.7 mph - 0.00 in   Overcast
11:19 AM 41.0 °F 33.5 °F 37.4 °F 87% 29.56 in 10.0 mi SE 13.8 mph - 0.00 in Rain Light Rain
11:53 AM 42.1 °F 35.2 °F 36.0 °F 79% 29.59 in 10.0 mi South 12.7 mph 21.9 mph 0.00 in   Overcast
12:53 PM 39.0 °F 31.0 °F 35.1 °F 86% 29.60 in 10.0 mi WSW 13.8 mph 27.6 mph 0.02 in Rain Light Rain
1:09 PM 35.6 °F 24.2 °F 32.0 °F 87% 29.58 in 2.5 mi SW 21.9 mph 36.8 mph 0.00 in Snow Light Snow
1:12 PM 33.8 °F 22.5 °F 32.0 °F 93% 29.58 in 1.5 mi SW 19.6 mph 33.4 mph 0.01 in Snow Light Snow
1:20 PM 35.6 °F 25.9 °F 33.8 °F 93% 29.58 in 3.0 mi WSW 16.1 mph 25.3 mph 0.02 in Snow Light Snow
1:27 PM 35.6 °F 26.6 °F 33.8 °F 93% 29.58 in 9.0 mi WSW 13.8 mph - 0.02 in   Overcast
1:40 PM 37.4 °F 29.8 °F 33.8 °F 87% 29.58 in 10.0 mi West 11.5 mph - 0.02 in   Scattered Clouds
1:53 PM 39.0 °F 29.9 °F 34.0 °F 82% 29.63 in 10.0 mi WSW 17.3 mph 23.0 mph 0.02 in   Partly Cloudy
2:53 PM 37.9 °F 30.9 °F 28.9 °F 70% 29.66 in 10.0 mi WSW 10.4 mph - 0.00 in   Partly Cloudy
3:53 PM 39.0 °F 30.6 °F 25.0 °F 57% 29.68 in 10.0 mi SW 15.0 mph 21.9 mph N/A   Clear
4:53 PM 42.1 °F 37.1 °F 24.1 °F 49% 29.68 in 10.0 mi WSW 8.1 mph - N/A   Partly Cloudy
5:53 PM 39.9 °F - 21.9 °F 49% 29.68 in 10.0 mi Calm Calm - N/A   Scattered Clouds
6:53 PM 34.0 °F - 21.0 °F 59% 29.71 in 10.0 mi Calm Calm - N/A   Partly Cloudy
7:53 PM 30.0 °F 24.1 °F 23.0 °F 75% 29.73 in 10.0 mi WSW 5.8 mph - N/A   Partly Cloudy
8:53 PM 32.0 °F 25.6 °F 21.9 °F 66% 29.73 in 10.0 mi South 6.9 mph - N/A   Mostly Cloudy
9:53 PM 34.0 °F 29.8 °F 27.0 °F 75% 29.73 in 10.0 mi SSW 4.6 mph - N/A   Overcast
10:53 PM 34.0 °F 29.8 °F 27.0 °F 75% 29.73 in 3.0 mi South 4.6 mph - 0.00 in Snow Light Snow
11:53 PM 30.9 °F - 28.0 °F 89% 29.72 in 10.0 mi Calm Calm - 0.00 in   Mostly Cloudy